User: anonymous   Login
Location: Unspecified
(0.0000°N, 0.0000°E)
Time: 01:49:07
(UTC+00:00)
Language:

USA 207 - Orbit

View from above orbital plane
View from above orbital plane
View from above satellite
View from above satellite

Ground track
Ground track

The orbit data is extracted from the following two-line orbital elements,

1 35815U 09047A   18112.69356161 0.00000000  00000-0  00000-0 0    05
2 35815   0.0720 148.2863 0003507 195.7738 164.2262  1.00270000    03
Epoch (UTC): 22 April 2018 16:38:43
Eccentricity: 0.0003507
inclination: 0.0720°
perigee height: 35772 km
apogee height: 35801 km
right ascension of ascending node: 148.2863°
argument of perigee: 195.7738°
revolutions per day: 1.00270000
mean anomaly at epoch: 164.2262°
orbit number at epoch: 0

The dashed part of the orbit path shows where the satellite is in the earth's shadow,  

DLR